Regional Weather Roundup
Issued by NWS Cleveland, OH

Home | Current Version | Previous Version | Graphics & Text | Print | Product List | Glossary On
Versions: 1 2 3 4 5 6 7 8 9 10 11 12 13 14 15 16 17 18 19 20 21 22 23 24 25 26 27 28 29 30 31 32 33 34 35 36 37 38 39 40 41 42 43 44 45 46 47 48 49 50
000
ASUS41 KCLE 011310
RWRCLE
OHIO REGIONAL WEATHER ROUNDUP
NATIONAL WEATHER SERVICE WILMINGTON, OH
900 AM EDT FRI AUG 01 2014

NOTE: "FAIR" INDICATES FEW OR NO CLOUDS BELOW 12,000 FEET WITH NO
SIGNIFICANT WEATHER AND/OR OBSTRUCTIONS TO VISIBILITY.

OHZ001>008-015>018-024>027-034-035-043-044-011400-
   NORTHWEST OHIO

CITY           SKY/WX    TMP DP  RH WIND       PRES   REMARKS
DEFIANCE       SUNNY     68  61  78 SW5       30.12S
FINDLAY        SUNNY     69  61  75 S3        30.13R
TOLEDO EXPRESS SUNNY     68  61  78 SW5       30.12R
TOLEDO METCALF MOSUNNY   68  60  75 SW6       30.12S
LIMA           SUNNY     69  61  75 S3        30.14R
$$

OHZ009>014-019>023-028>033-038-089-011400-
   NORTHEAST OHIO

CITY           SKY/WX    TMP DP  RH WIND       PRES   REMARKS
CLE-HOPKINS    MOSUNNY   68  59  73 SW7       30.15S
CLE-LAKEFRONT  MOSUNNY   72  58  61 S5        30.11S
CUY CO. ARPT   PTSUNNY   73  63  68 SW7       30.14R
LORAIN-ELYRIA  SUNNY     71  61  70 SW5       30.14S
ASHTABULA      SUNNY     67  61  81 S5        30.15S
AKRON-CANTON   SUNNY     70  62  76 SW5       30.16R
WOOSTER        SUNNY     68  63  84 S3        30.17R
MANSFIELD      SUNNY     69  62  78 S3        30.16R
YOUNGSTOWN     MOSUNNY   67  61  81 S5        30.17R
$$

OHZ042-051>053-060>062-070>072-077>081-011400-
  SOUTHWEST OHIO

CITY           SKY/WX    TMP DP  RH WIND       PRES   REMARKS
CINC-COVINGTON MOSUNNY   71  64  78 CALM      30.13R
CINC-LUNKEN    FOG       64  64 100 CALM      30.13S VSB 1/2
HAMILTON       SUNNY     69  63  81 CALM      30.13S
DAYTON         MOSUNNY   71  62  73 CALM      30.15S
WRIGHT-PAT AFB MOSUNNY   66  63  87 N2        30.14R
DAYTON GENERAL   N/A     71  63  75 MISG      30.13S
WILMINGTON     SUNNY     72  64  76 CALM      30.13S
$$

OHZ036-037-039>041-045>050-054>059-063>069-073>076-082>088-011400-
  CENTRAL AND SOUTHEAST OHIO

CITY           SKY/WX    TMP DP  RH WIND       PRES   REMARKS
COLUMBUS       MOSUNNY   71  62  73 CALM      30.13S
OSU AIRPORT    MOSUNNY   70  64  81 CALM      30.14S HAZE
BOLTON FIELD   MOSUNNY   68  64  88 CALM      30.14S FOG
RICKENBACK AFB SUNNY     69  60  73 CALM      30.13S
NEWARK         SUNNY     68  62  81 CALM      30.14S
MARION         SUNNY     67  62  84 S3        30.15R HAZE
LANCASTER      MOSUNNY   67  63  87 CALM      30.14S FOG
ZANESVILLE     SUNNY     67  62  84 CALM      30.15S
NEW PHILLY     SUNNY     66  63  90 CALM      30.16S
$$



USA.gov is the U.S. government's official web portal to all federal, state and local government web resources and services.